• Join FlightAware (Why Join?)
  • Login
  • US Flag 
01:04AM EDT


 

Airport Tracker/Info


-or-


 

Live Flight TrackerFlight Track Log ✈ DAL3606 ✈ 30-Apr-2013 ✈ KATL - KIAD

Flight Track Log - Related Links

Times and Time Zones

All times are in EDT time to prevent confusion due to time zone crossing. See the DAL3606 flight status page for this flight to view local times or setup timezone preferences in your user account.

Time Position Orientation Groundspeed Altitude Reporting Facility
EDT Latitude Longitude Course Direction KTS MPH feet Rate Location/Type
07:42AM 33.6333 -84.3500 48° Northeast 220 253 2,600  Level Atlanta TRACON
07:43AM 33.6333 -84.2667 90° East 270 311 5,200 2,700 Climbing Atlanta TRACON
07:44AM 33.8702 -84.1504 73° East  Level Estimated
07:44AM 33.6333 -84.1667 90° East 282 325 7,800  Level Atlanta TRACON
07:44AM 33.6336 -84.1236 90° East 301 346 9,000 2,280 Climbing Atlanta Center
07:45AM 33.9479 -84.0575 54° Northeast  Level Estimated
07:45AM 33.6772 -84.0439 57° Northeast 295 339 11,600  Level Atlanta Center
07:46AM 33.9112 -83.9333 110° East  Level FlightAware Approximate
07:46AM 33.7419 -83.9589 48° Northeast 307 353 12,600  Level Atlanta Center
07:47AM 33.9897 -83.8415 48° Northeast  Level Estimated
07:47AM 33.8150 -83.8689 46° Northeast 347 399 14,200  Level Atlanta Center
07:48AM 33.8900 -83.7711 47° Northeast 376 433 16,100 1,800 Climbing Atlanta Center
07:49AM 33.9606 -83.6681 50° Northeast 399 459 17,900 1,560 Climbing Atlanta Center
07:50AM 34.0311 -83.5550 53° Northeast 409 471 19,300 1,380 Climbing Atlanta Center
07:51AM 34.1039 -83.4417 52° Northeast 418 481 20,700 1,380 Climbing Atlanta Center
07:52AM 34.1783 -83.3256 52° Northeast 423 487 22,100 1,380 Climbing Atlanta Center
07:53AM 34.2567 -83.1919 55° Northeast 434 499 23,500 1,440 Climbing Atlanta Center
07:54AM 34.3311 -83.0753 52° Northeast 439 505 25,000 1,380 Climbing Atlanta Center
07:55AM 34.4053 -82.9561 53° Northeast 439 505 26,300 1,200 Climbing Atlanta Center
07:56AM 34.4833 -82.8342 52° Northeast 444 511 27,500 1,200 Climbing Atlanta Center
07:57AM 34.5572 -82.7119 54° Northeast 439 505 28,800 1,260 Climbing Atlanta Center
07:58AM 34.6289 -82.5897 55° Northeast 444 511 30,100 1,020 Climbing Atlanta Center
07:59AM 34.7047 -82.4697 52° Northeast 444 511 30,900 780 Climbing Atlanta Center
08:00AM 34.7803 -82.3494 53° Northeast 444 511 31,700 900 Climbing Atlanta Center
08:01AM 34.8536 -82.2239 55° Northeast 449 517 32,800 960 Climbing Atlanta Center
08:02AM 34.9331 -82.1006 52° Northeast 449 517 33,700 780 Climbing Atlanta Center
08:03AM 35.0083 -81.9772 53° Northeast 454 522 34,400 600 Climbing Atlanta Center
08:04AM 35.0769 -81.8461 57° Northeast 454 522 35,000 300 Climbing Atlanta Center
08:05AM 35.1497 -81.7144 56° Northeast 461 531 35,000  Level Atlanta Center
08:06AM 35.2119 -81.5958 57° Northeast 466 536 35,000  Level Atlanta Center
08:07AM 35.2822 -81.4614 57° Northeast 459 528 35,000  Level Atlanta Center
08:08AM 35.3503 -81.3269 58° Northeast 459 528 35,000  Level Atlanta Center
08:09AM 35.4183 -81.1947 58° Northeast 464 534 35,000 -300 Level Atlanta Center
08:10AM 35.4881 -81.0597 58° Northeast 464 534 34,500 -540 Descending Atlanta Center
08:11AM 35.5678 -80.9086 57° Northeast 464 534 34,000 -540 Descending Atlanta Center
08:12AM 35.6314 -80.7886 57° Northeast 471 542 33,500 -480 Descending Atlanta Center
08:13AM 35.7028 -80.6503 58° Northeast 477 549 33,100 -540 Descending Atlanta Center
08:14AM 35.7739 -80.5092 58° Northeast 477 549 32,500 -840 Descending Atlanta Center
08:15AM 35.8450 -80.3703 58° Northeast 477 549 31,500 -780 Descending Atlanta Center
08:16AM 35.9156 -80.2261 59° Northeast 477 549 31,000 -180 Descending Atlanta Center
08:19AM 36.0775 -79.9275 56° Northeast 474 545 31,000  Level Washington Center
08:20AM 36.1531 -79.7953 55° Northeast 474 545 31,000 -60 Level Washington Center
08:21AM 36.2289 -79.6553 56° Northeast 484 557 30,900 -360 Descending Washington Center
08:22AM 36.2978 -79.5350 55° Northeast 484 557 30,400 -600 Descending Washington Center
08:23AM 36.3839 -79.3847 55° Northeast 478 550 29,800 -540 Descending Washington Center
08:24AM 36.4547 -79.2511 57° Northeast 473 544 29,400 -480 Descending Washington Center
08:25AM 36.5297 -79.1228 54° Northeast 473 544 28,900 -600 Descending Washington Center
08:26AM 36.6067 -78.9867 55° Northeast 473 544 28,300 -1,380 Descending Washington Center
08:27AM 36.6728 -78.8575 57° Northeast 473 544 26,200 -1,680 Descending Washington Center
08:28AM 36.7450 -78.7308 55° Northeast 473 544 25,000 -600 Descending Washington Center
08:29AM 36.8194 -78.5911 56° Northeast 478 550 25,000  Level Washington Center
08:30AM 36.8917 -78.4564 56° Northeast 478 550 25,000 -120 Level Washington Center
08:31AM 36.9767 -78.3061 55° Northeast 479 551 24,800 -360 Descending Washington Center
08:32AM 37.0606 -78.1842 49° Northeast 479 551 24,300 -540 Descending Washington Center
08:33AM 37.1708 -78.1072 29° Northeast 444 511 23,800 -540 Descending Washington Center
08:34AM 37.2789 -78.0219 32° Northeast 449 517 23,300 -540 Descending Washington Center
08:35AM 37.3869 -77.9392 31° Northeast 454 522 22,800 -600 Descending Washington Center
08:36AM 37.4928 -77.8558 32° Northeast 454 522 22,200 -420 Descending Washington Center
08:37AM 37.6047 -77.7858 26° Northeast 449 517 22,000 -1,080 Descending Washington Center
08:38AM 37.7144 -77.7181 26° Northeast 443 510 20,100 -2,280 Descending Washington Center
08:39AM 37.8219 -77.6556 25° Northeast 429 494 17,500 -2,580 Descending Washington Center
08:40AM 37.9272 -77.5953 24° Northeast 418 481 14,900 -2,520 Descending Washington Center
08:41AM 38.0239 -77.5372 25° Northeast 403 464 12,600 -2,160 Descending Washington Center
08:42AM 38.1125 -77.4892 23° Northeast 386 444 10,700 -1,320 Descending Washington Center
08:43AM 38.1967 -77.4411 24° Northeast 359 413 10,000 -360 Descending Washington Center
08:44AM 38.2700 -77.4061 21° North 317 365 10,000 -300 Level Washington Center
08:45AM 38.3492 -77.4158 354° North 274 315 9,500 -1,140 Descending Washington Center
08:46AM 38.4219 -77.4256 354° North 269 310 7,800 -1,380 Descending Washington Center
08:47AM 38.4947 -77.4328 356° North 269 310 6,900 -1,260 Descending Washington Center
08:48AM 38.5697 -77.4450 353° North 269 310 5,400 -1,200 Descending Washington Center
08:49AM 38.6425 -77.4522 356° North 269 310 4,600 -1,020 Descending Washington Center
08:49AM 38.6833 -77.4500 North 266 306 4,100 -480 Descending Potomac TRACON
08:50AM 38.7500 -77.4667 349° North 261 300 4,000 -120 Descending Potomac TRACON